This demonstration page uses our WeatherBlox Daily Observations layout. Learn more.

Left ArrowRight Arrow

Hourly Observations for October 13, 2021

Temp ( °F °C ) Dew Point ( °F °C ) Humidity (%) Winds ( mph kmh ) Pressure ( in mb ) Visibility ( mi km ) Precip ( " mm )
12:53 am 00:53 Partly Cloudy 54 12.2 26 -3.3 34 34 N N/A 29.94 1014 10 16 N/A
1:53 am 01:53 Cloudy 55 12.8 23 -5 29 29 N N/A 29.94 1014 10 16 N/A
2:53 am 02:53 Mostly Cloudy 53 11.7 26 -3.3 35 35 NE 3 6 29.93 1014 10 16 N/A
3:53 am 03:53 Cloudy 51 10.6 26 -3.3 38 38 W 5 7 29.94 1014 10 16 N/A
4:53 am 04:53 Cloudy 53 11.7 31 -0.6 43 43 N N/A 29.94 1014 10 16 N/A
5:53 am 05:53 Cloudy 53 11.7 26 -3.3 35 35 N N/A 29.95 1014 10 16 N/A
6:53 am 06:53 Cloudy 53 11.7 26 -3.3 35 35 N N/A 29.98 1015 10 16 N/A
7:53 am 07:53 Cloudy 53 11.7 27 -2.8 37 37 ENE 5 7 29.98 1015 10 16 0.00 0.00
8:53 am 08:53 Cloudy 56 13.3 23 -5 28 28 N N/A 30.01 1016 10 16 N/A
9:53 am 09:53 Cloudy 59 15 23 -5 25 25 N N/A 30.03 1017 10 16 N/A
10:53 am 10:53 Cloudy 62 16.7 19 -7.2 19 19 NE 3 6 30.03 1017 10 16 N/A
11:53 am 11:53 Mostly Cloudy 64 17.8 19 -7.2 18 18 N N/A 30.03 1017 10 16 N/A
12:53 pm 12:53 Sunny 66 18.9 27 -2.8 23 23 N N/A 30.01 1016 10 16 N/A
1:53 pm 13:53 Sunny 68 20 26 -3.3 21 21 N N/A 29.98 1015 10 16 N/A
2:53 pm 14:53 Sunny 70 21.1 28 -2.2 21 21 E 5 7 29.96 1015 10 16 N/A
3:53 pm 15:53 Sunny 70 21.1 30 -1.1 23 23 VRB 3 6 29.95 1014 10 16 N/A
4:53 pm 16:53 Sunny 70 21.1 31 -0.6 23 23 N N/A 29.94 1014 10 16 N/A
5:53 pm 17:53 Sunny 69 20.6 31 -0.6 24 24 WSW 3 6 29.95 1014 10 16 N/A
6:53 pm 18:53 Clear 62 16.7 32 undefined 32 32 N N/A 29.95 1014 10 16 N/A
7:53 pm 19:53 Clear 60 15.6 33 0.6 36 36 WNW 6 9 29.97 1015 10 16 N/A
8:53 pm 20:53 Clear 60 15.6 32 undefined 35 35 NNW 7 11 29.99 1016 10 16 N/A
9:53 pm 21:53 Clear 60 15.6 27 -2.8 28 28 N 6 9 30.01 1016 10 16 N/A
10:53 pm 22:53 Clear 58 14.4 28 -2.2 32 32 N 8 13 30.03 1017 10 16 N/A
11:53 pm 23:53 Clear 61 16.1 28 -2.2 29 29 N 12 19 30.04 1017 10 16 N/A

Powered by AerisWeather